Regional Weather Roundup
Issued by NWS

Home | Current Version | Previous Version | Text Only | Print | Product List | Glossary On
Versions: 1 2 3 4 5 6 7 8 9 10 11 12 13 14 15 16 17 18 19 20 21 22 23 24 25 26 27 28 29 30 31 32 33 34 35 36 37 38 39 40 41 42 43 44 45 46 47 48 49 50
000
ASUS45 KABQ 281801
RWRNM
NEW MEXICO REGIONAL WEATHER ROUNDUP
NATIONAL WEATHER SERVICE ALBUQUERQUE NM
1200 PM MDT FRI JUL 28 2017

NOTE: "FAIR" MEANS FEW OR NO CLOUDS BELOW 12,000 FEET AGL WITH NO
       SIGNIFICANT WEATHER OR OBSTRUCTIONS TO VISION.

      THIS PRODUCT IS RELEASED AS TWO VERSIONS.  ONE VERSION NEAR
      THE TOP OF THE HOUR CONTAINING PRELIMINARY DATA FROM ALBUQUERQUE
      AND OTHER STATIONS.  A FINAL VERSION WITH ADDITIONAL DATA IS
      ISSUED ABOUT 10 MINUTES AFTER THE HOUR.

NMZ501-503-504-510>518-281900-
NORTHWEST PLATEAU/NORTHCENTRAL MOUNTAINS

CITY           SKY/WX    TMP DP  RH WIND       PRES   REMARKS
FARMINGTON     FAIR      81  54  39 VRB5      30.18F
6HR MIN TEMP:  67; 6HR MAX TEMP:  81;

LOS ALAMOS     FAIR      71  58  64 NE5       30.32F
SANTA FE       FAIR      75  61  61 CALM      30.25F
6HR MIN TEMP:  61; 6HR MAX TEMP:  75; 6HR PCP: TRACE;

TAOS           FAIR      72  52  49 CALM      30.31F
ANGEL FIRE     FAIR      66  54  65 CALM      30.41S

$$
NMZ402-403-502-505>509-281900-
WESTCENTRAL MOUNTAINS/SOUTHWEST MOUNTAINS

CITY           SKY/WX    TMP DP  RH WIND       PRES   REMARKS
GALLUP         FAIR      73  56  54 CALM      30.28S
6HR MIN TEMP:  62; 6HR MAX TEMP:  73;

GRANTS         FAIR      76  55  48 SW5       30.29F
SILVER CITY    FAIR      82  57  42 SE5       30.20F

$$
NMZ407-409-411-412-281900-
SOUTHERN DESERTS

CITY           SKY/WX    TMP DP  RH WIND       PRES   REMARKS
DEMING         FAIR      86  60  41 VRB5      30.12F
6HR MIN TEMP:  66; 6HR MAX TEMP:  86;

LAS CRUCES     FAIR      85  60  42 E3        30.14F
ALAMOGORDO     FAIR      84  59  42 W3        30.11F
T OR C         FAIR      84  59  42 E6        30.16F
6HR MIN TEMP:  68; 6HR MAX TEMP:  84;


$$
NMZ519>523-281900-
CENTRAL VALLEYS/CENTRAL HIGHLANDS

CITY           SKY/WX    TMP DP  RH WIND       PRES   REMARKS
ALBUQUERQUE    FAIR      78  59  51 VRB5      30.21F
6HR MIN TEMP:  63; 6HR MAX TEMP:  78;

DOUBLE EAGLE   PTSUNNY   79  57  47 CALM      30.24F
CLINES CORNERS FAIR      75  53  46 VRB3      30.30F
6HR MIN TEMP:  59; 6HR MAX TEMP:  75;

BELEN          NOT AVBL
SOCORRO        FAIR      80  60  50 N8        30.18F
6HR MIN TEMP:  66; 6HR MAX TEMP:  80;


$$
NMZ524>526-539-540-281900-
SOUTHCENTRAL MOUNTAINS

CITY           SKY/WX    TMP DP  RH WIND       PRES   REMARKS
RUIDOSO        FAIR      77  55  47 E8        30.31F

$$
NMZ527>531-281900-
NORTHEAST HIGHLANDS/NORTHEAST PLAINS

CITY           SKY/WX    TMP DP  RH WIND       PRES   REMARKS
LAS VEGAS      FAIR      74  55  51 S8        30.29F
6HR MIN TEMP:  59; 6HR MAX TEMP:  74;

RATON          FAIR      71  59  65 S9        30.25S
6HR MIN TEMP:  59; 6HR MAX TEMP:  73;

CLAYTON        FAIR      78  65  63 SE9       30.17F
6HR MIN TEMP:  63; 6HR MAX TEMP:  79;


$$
NMZ532>537-281900-
EASTCENTRAL PLAINS

CITY           SKY/WX    TMP DP  RH WIND       PRES   REMARKS
SANTA ROSA     FAIR      83  57  41 E6        30.15F
TUCUMCARI      FAIR      87  62  43 CALM      30.08F
6HR MIN TEMP:  71; 6HR MAX TEMP:  88;

CANNON AFB     FAIR      90  53  27 S12       30.12F
6HR MIN TEMP:  68; 6HR MAX TEMP:  90;

CLOVIS AIRPORT FAIR      90  55  30 S10       30.12F

$$
NMZ028-029-538-281900-
SOUTHEAST PLAINS

CITY           SKY/WX    TMP DP  RH WIND       PRES   REMARKS
ROSWELL        FAIR      90  57  32 W7        30.07F
6HR MIN TEMP:  74; 6HR MAX TEMP:  92;

ARTESIA        FAIR      88  57  35 CALM      30.06F
CARLSBAD       FAIR      90  60  36 VRB7      30.04F
6HR MIN TEMP:  71; 6HR MAX TEMP:  90;

HOBBS          SUNNY     91  48  22 SE13G18   30.08F


$$




USA.gov is the U.S. government's official web portal to all federal, state and local government web resources and services.